Overzicht doolhoven gemaakt door gebruikers 2013

Hieronder staat een overzicht van alle doolhoven die zijn gemaakt door bezoekers.

Iedere bezoeker mag elk doolhof beoordelen door sterren toe te kennen. Daar is twee keer gelegenheid toe, tijdens het doolhof en aan het eind van het doolhof. Daarbij telt een stem aan het eind van het doolhof 4 keer zo zwaar. In totaal kan ieder per doolhof dus 5 stemmen uitbrengen. (Je kunt niet stemmen voor een doolhof dat je zelf hebt gemaakt).
De waardering varieert van 1 ster (matig) tot 5 sterren (uitmuntend). De gemiddelde waardering is in dit overzicht te zien.
Ook staat er hoe vaak een unieke bezoeker in een doolhof is gestart (kolom 'Starts') en hoeveel daarvan het einde hebben bereikt (kolom 'Gefinisht').
In de laatste kolom is het aantal finishers weergegeven als percentage van het aantal starters. Dit geeft een indruk van de moeilijkheid, hoe lager het percentage, hoe moeilijker het doolhof.

Kijk hier voor een overzicht van de officiële doolhoven.



2006 2007 2008 2009 2010 2011 2012 2013 2014 2015 2016 2017 2018 2019 2020 Pagina's: 1 2 3 4 5 6
Naam doolhof
Sorteer oplopend Sorteer neergaand
Maker
Sorteer oplopend Sorteer neergaand
Omschrijving
 
Datum gemaakt
Sorteer oplopend Sorteer neergaand
Grootte
Sorteer oplopend Sorteer neergaand
waarderingwaarderingwaarderingwaarderingwaardering
Sorteer oplopend Sorteer neergaand
Starts
Sorteer oplopend Sorteer neergaand
Gefinisht
Sorteer oplopend Sorteer neergaand
%
Sorteer oplopend Sorteer neergaand
bgjvhjvhjbbghgh 24-05-2013 10:44:18 M 22 140
zoem winnerstonveel succes26-05-2013 13:18:54 M 333 10110
vind jij de teekmanon 28-05-2013 11:15:51 M 1 60
klassendoolhoftaniDoolhof van de Week (week 22)29-05-2013 10:53:58 M 333 420
Life of PiRuth Baker 29-05-2013 16:49:31 M 22 130
zonnig doolhofryan 11-06-2013 15:12:33 M 333 6116.7
Maikels en Renskes spookhuisMaikelVeel succes ermee!11-06-2013 16:05:36 M 4444 6116.7
MAZE JEORjerome boneta 12-06-2013 06:52:51 M 333 70
KatiaKatiaDoolhof van de Week (week 24)13-06-2013 21:55:43 M 4444 350
Dwaalhof EddyDewi 16-06-2013 13:22:21 M 4444 60
2 jaar huwelijkmichaelVeel Succes16-06-2013 20:25:40 M 4444 110
duisternisdoolhofRoyeeeeeeeeeeeeeeeeeeeeeeeeeeeeeeeeeeeeeeeeeeeeeeeeeeeeeeeeeeeeeeeeeeee eeeeeeeeeeeeeeeeeeeeeeeeeeeeeeeeeeeeeeeeeeeeeeeeeeeeeeeeeeeeeeeeeeee eeeeeeeeeeeeeeeeeeeeeeeeeeeeeeeeeeeeeeeeeeeeeeeeeeeeeennnnnnnnnnnnnn nnnnnnnnnnnnnnnnnnnnnnnnnnnnnnnnnnnnnnnnnnnnnnnnnnnnnnnnnnnnnnnngggg gggggggggggggggggggggggggggggggggggggggggggggggggggggggggggggggggggg ggggggggggggggggggggggggggggggggggggggggggggggg21-06-2013 09:30:41 M 4444 100
youtubeyoutube 21-06-2013 10:44:19 M 1 1218.3
PienolienoPien 22-06-2013 11:20:20 M 22 160
freeze doolhofborisonmogelijk 25-06-2013 13:07:27 M 4444 70
kunst van vliegmaggy 25-06-2013 16:03:11 M 22 80
jiojohallo everybodu 26-06-2013 11:54:42 M 333 1915.3
SJPKimberley 26-06-2013 21:54:05 M 55555 220
probeer het einde te halenBram en Jelle 27-06-2013 15:02:08 M 22 40
Adem zoekt EvaSiebe 28-06-2013 18:48:18 M 333 90
o yeahhelenadit is om te proberen, dit is mijn eerste keer28-06-2013 21:02:23 M 333 150
doolhof die niet zo makkelijk isafnoefnoeDoolhof van de Week (week 26)
"zoek de uitgang"
30-06-2013 15:55:02 M 55555 1616.3
pakolientjechris 01-07-2013 12:40:39 M 22 130
Galaxy wayWillem Jan QuintensProbeer maar...01-07-2013 17:49:02 M 4444 120
doolhofvakantiemarjan 06-07-2013 20:34:27 M 4444 90
Leonardo eemlandomit01 02-07-2013 14:35:57 M 4444 40
muhhahahahahhaahhajlieeee 02-07-2013 17:38:57 M 1 9222.2
johnjohn 02-07-2013 17:40:29 M 22 210
the twist mazejaysonthis is a short way just complete this03-07-2013 15:35:03 M 22 50
the twist but awesome mazejaysonDoolhof van de Week (week 27)03-07-2013 15:42:13 M 55555 360
TempleOfries 03-07-2013 16:27:32 M 1 180
anneannehet doolhof is niet heel moeilijk 04-07-2013 20:48:18 M 1 190
opzoek naar avondtuurjantien 11-07-2013 09:07:42 M 1 60
smylie doolhofjessica en leonardohij is leuk13-07-2013 15:26:05 M 22 90
makkie maar langjael 18-07-2013 07:20:02 M 1 11218.2
DorrepaalDorrepaalhey hoi19-07-2013 21:55:13 M 333 150
superheldensarazorg dat de superheld bij de slechterik geraakt01-08-2013 15:40:34 M 1 180
ijsjeelkeDit is mijn eerste doolhof hopelijk vind je het leuk! veel plezier!09-08-2013 19:11:40 M 1 130
KyleDelisa 17-08-2013 05:04:44 M 22 190
CHERmore 20-08-2013 03:43:29 M 333 220
fc utrechtlarissa 20-08-2013 15:35:48 M 1 110
Route vijfTutoren 30-08-2013 07:56:40 M 333 130
ChiroMyinsofieZorg ervoor dat Jantje op de chiro geraakt! 02-09-2013 15:36:00 M 333 6511.5
BoonanzaDusty 06-09-2013 19:43:52 M 22 200
klj wolvertemklj wolvertem 07-09-2013 01:28:09 M 1 90
monarchychrishave fun guys09-09-2013 20:59:56 M 22 140
38karineHappy 38!17-09-2013 16:46:02 M 22 240
Zero BiokevinVoor een hond, om te kijken hoe hij denkt (keuzes maakt)18-09-2013 16:08:58 M 333 110
hocyclub de sterrenkira 02-10-2013 11:56:54 M 4444 50
trivagokai roderick janzoeken maar04-10-2013 16:28:42 M 333 140
Pagina's: 1 2 3 4 5 6




Copyright © 2005 - 2019 Doolhofspel.nl/VirtuWorld.net
Alle rechten voorbehouden